Location: Chervonnoye
(48.6000°N, 34.4000°E)
Time: 02:07:56
(UTC+00:00)

KAITUO 1B - Pass Details

Date: 02 December 2021
Orbit: 486 x 507 km, 97.4° (Epoch: 16 January)

Event Time Altitude Azimuth Distance (km) Brightness Sun altitude
Rises 16:11:10 0° 200° (SSW) 2,591 ? -22.7°
Reaches altitude 10° 16:13:38 10° 217° (SW) 1,716 ? -23.1°
Maximum altitude 16:16:28 21° 267° (W) 1,193 ? -23.6°
Drops below altitude 10° 16:19:21 10° 317° (NW) 1,736 ? -24.0°
Sets 16:21:51 0° 334° (NNW) 2,630 ? -24.5°
